Regional Weather Roundup
Issued by NWS Charleston, SC

Current Version | Previous Version | Graphics & Text | Print | Product List | Glossary On
Versions: 1 2 3 4 5 6 7 8 9 10 11 12 13 14 15 16 17 18 19 20 21 22 23 24 25 26 27 28 29 30 31 32 33 34 35 36 37 38 39 40 41 42 43 44 45 46 47 48 49 50
000 ASUS42 KCHS 161110 RWRCHS REGIONAL WEATHER ROUNDUP NATIONAL WEATHER SERVICE CHARLESTON SC 700 AM EDT TUE SEP 16 2014 NOTE: "FAIR" INDICATES FEW OR NO CLOUDS BELOW 12,000 FEET WITH NO SIGNIFICANT WEATHER AND/OR OBSTRUCTIONS TO VISIBILITY. NOT ALL STATIONS ARE QUALITY CONTROLLED BY THE NATIONAL WEATHER SERVICE. USE DATA WITH CAUTION...ESPECIALLY DEWPOINT OBSERVATIONS. SCZ027-030-031-034>040-042>050-161200- ...SOUTH CAROLINA... CITY SKY/WX TMP DP RH WIND PRES REMARKS N CHARLESTON MOCLDY 75 73 94 CALM 30.05F FOG WATERFRONT PRK N/A 79 N/A N/A CALM N/A FORT JOHNSON NOT AVBL MOUNT PLEASANT FOG 73 73 100 CALM 30.05S VSB<1/4 JOHNS ISLAND CLOUDY 73 73 100 CALM 30.05F FOG PINOPOLIS N/A 77 72 83 NW2 29.97F MONCKS CORNER NOT AVBL SUMMERVILLE CLOUDY 72 72 100 CALM 30.07R BEAUFORT MCAS MOCLDY 75 72 90 CALM 30.05S BEAUFORT ARPT PTSUNNY 75 75 100 CALM 30.05S HILTON HEAD IS MOCLDY 75 75 100 CALM 30.07R FOG GEORGETOWN NOT AVBL WALTERBORO PTSUNNY 72 N/A N/A CALM 30.07R ORANGEBURG CLOUDY 73 71 93 SW3 30.06S BARNWELL CLOUDY 73 73 100 CALM 30.08R FOG AIKEN FOG 72 72 100 CALM 30.10S VSB 3/4 MANNING PTSUNNY 73 N/A N/A CALM 30.05S KINGSTREE NOT AVBL COLUMBIA CLOUDY 73 71 93 W5 30.06R FOG SUMTER CLOUDY 72 68 88 CALM 30.05R FLORENCE CLOUDY 73 70 90 S3 30.05S MYRTLE BEACH CLOUDY 72 68 88 CALM 30.04F N MYRTLE BEACH CLOUDY 71 69 93 CALM 30.04F $$ GAZ063-065-086>088-099>101-113>116-118-119-134-136>141-150-161200- ...GEORGIA... CITY SKY/WX TMP DP RH WIND PRES REMARKS SAVANNAH ARPT CLOUDY 74 72 93 CALM 30.06S HUNTER AAF MOCLDY 72 72 100 W2 30.05R FORT STEWART CLOUDY 73 72 94 W2 30.05S STATESBORO NOT AVBL SYLVANIA PTSUNNY 72 72 98 CALM 30.07S FOG CLAXTON NOT AVBL THOMSON MOCLDY 72 72 100 CALM 30.12S AUGUSTA-BUSH CLOUDY 73 72 96 CALM 30.06R FOG AUGUSTA-DANIEL MOCLDY 73 72 96 CALM 30.07F FOG SWAINSBORO FOG 72 72 100 CALM 30.08S VSB 1/2 VIDALIA CLOUDY 72 72 100 W3 30.08S FOG ALMA MOCLDY 72 70 93 CALM 30.06F FOG WAYCROSS CLOUDY 76 76 100 CALM 30.06F JESUP N/A 75 73 94 CALM 30.07F FOG BRUNSWICK MOCLDY 73 70 88 W3 30.07S SAINT SIMONS PTCLDY 74 72 93 W5 30.06F $$ SCZ027-028-034-036>038-045-046-048>050-GAZ119-141-161200- ...LAKE AND SUPPLEMENTAL COASTAL OBSERVATIONS... STATION/POSITION TIME TEMP WIND PRES WAVE SWELL AIR SEA DIR/SP/G HT/PER HT/PER/DIR (UTC) (F) (DEG/KT/KT) (MB) (FT/S) (FT/S/D) UPR LAKE MARION NOT AVBL WINYAH BAY 1000 73 290/ 2 1017.0S LAKE MURRAY 1000 73 280/ 3/ 6 1017.3R ACE BASIN NERRS 1000 73 CALM 1018.0S FORT PULASKI 1100 310/ 3/ 5 N/A SAPELO ISLAND 1000 75 270/ 5 1018.0S $$ ANZ835-935-AMZ111-154-330-350-352-354-374-450-454-472-161200- ...C-MAN AND BUOY OBSERVATIONS... STATION/POSITION TIME TEMP WIND PRES WAVE SWELL AIR SEA DIR/SP/G HT/PER HT/PER/DIR (UTC) (F) (DEG/KT/KT) (MB) (FT/S) (FT/S/D) FOLLY BEACH CMAN 1000 75 330/ 3/ 3 1018.2F BUOY 41004 1100 81 83 290/ 6/ 8 1017.2S 2/ 8 2/ 8 BUOY 41008 1100 79 84 290/ 12/ 14 1017.9R 2/ 8 2/ 80/ 8 5E ST. MARYS GA 1100 84 N/A 2/ 8 FRYING PAN BUOY NOT AVBL BUOY 41025 1100 76 290/ 6/ 10 1017.5R 3/ 8 2/ 50/ 8 CAPE LOOKOUT NC 1000 76 CALM / 2 1017.3R BUOY 41002 1011 80 83 310/ 8/ 10 1017.8 3/ 6 3/ 6 BUOY 41010 1100 83 85 260/ 6/ 8 1018.4R 2/ 8 2/ 30/ 8 BUOY 41012 NOT AVBL ST AUGUSTINE FL 1100 76 250/ 5/ 7 1019.0S CAPERS NEARSHORE 1000 76 340/ 6/ 6 N/A FRIPP NEARSHORE NOT AVBL $$

USA.gov is the U.S. government's official web portal to all federal, state and local government web resources and services.